Location: Krasnoyarskiy Pitomnik
(51.1333°N, 71.6167°E)
Time: 14:51:24
(UTC+00:00)

Meteor 2-10 Rocket - Pass Details

Date: 22 October 2021
Orbit: 733 x 885 km, 81.2° (Epoch: 26 November)

Event Time Altitude Azimuth Distance (km) Brightness Sun altitude
Rises 13:14:25 0° 159° (SSE) 3,407 6.7 -11.3°
Reaches altitude 10° 13:17:07 10° 149° (SSE) 2,453 5.8 -11.7°
Maximum altitude 13:21:52 30° 90° (E) 1,441 4.4 -12.5°
Drops below altitude 10° 13:26:28 10° 31° (NNE) 2,381 5.7 -13.2°
Sets 13:29:03 0° 21° (NNE) 3,290 6.6 -13.6°
